CAPE
0 0 0 3 2 3 2 0 0 0 0 0 0 0 0 0 0 0 0 0 0 0 0 0 0 0 0 0 0 0 0 0 0 0 0 0 0 0 0 0 0 0 0 0 0
0 0 0 3 1 2 2 1 5 0 0 0 0 0 0 0 0 0 0 0 0 0 0 0 0 0 0 0 0 0 0 0 0 0 0 0 0 0 0 0 0 0 0 0 0
0 0 0 3 3 3 5 4 3 0 0 0 0 0 0 0 0 0 0 0 0 0 0 0 0 0 0 0 0 0 0 0 0 0 0 0 0 0 0 0 0 0 0 0 0
0 0 0 2 5 2 1 6 0 0 0 0 0 0 0 0 0 0 0 0 0 0 0 0 0 0 0 0 0 0 0 0 0 0 0 0 0 0 0 0 0 0 0 0 0
0 0 0 0 1 0 3 2 0 0 0 0 0 0 0 0 0 0 0 0 0 0 0 0 0 0 0 0 0 0 0 0 0 0 0 0 0 0 0 0 0 0 0 0 0
0 0 0 0 0 0 0 0 0 0 0 0 0 0 0 0 0 0 0 0 0 0 0 0 0 0 0 0 0 0 0 0 0 0 0 0 0 0 0 0 0 0 0 0 0
0 0 0 0 0 0 0 0 0 0 0 0 0 0 0 0 0 0 0 0 0 0 0 0 0 0 0 0 0 0 0 0 0 0 0 0 0 0 0 0 0 0 0 0 0
0 0 0 0 0 0 0 0 0 0 0 0 0 0 0 0 0 0 0 0 0 0 0 0 0 0 0 0 0 0 0 0 0 0 0 0 0 0 0 0 0 0 0 0 0
0 0 0 0 0 0 0 0 0 0 0 0 0 0 0 0 0 0 0 0 0 0 0 0 0 0 0 0 0 0 0 0 0 0 0 0 0 0 0 0 0 0 0 0 0
0 0 0 0 0 0 0 0 0 0 0 0 0 0 0 0 0 0 0 0 0 0 0 0 0 0 0 0 0 0 0 0 0 0 0 0 0 0 0 0 0 0 0 0 0
0 0 0 0 0 0 0 0 0 0 0 0 0 0 0 0 0 0 0 0 0 0 0 0 0 0 0 0 0 0 0 0 0 0 0 0 0 0 0 0 0 0 0 0 0
0 0 0 0 0 0 0 0 0 0 0 0 0 0 0 0 0 0 0 0 0 0 0 0 0 0 0 0 0 0 0 0 0 0 0 0 0 0 0 0 0 0 0 0 0
0 0 0 0 0 0 0 0 0 0 0 0 0 0 0 0 0 0 0 0 0 0 0 0 0 0 0 0 0 0 0 0 0 0 0 0 0 0 0 0 0 0 0 0 0
0 0 0 0 0 0 0 0 0 0 0 0 0 0 0 0 0 0 0 0 0 0 0 0 0 0 0 0 0 0 0 0 0 0 0 0 0 0 0 0 0 0 0 0 0
0 0 0 0 0 0 0 0 0 0 0 0 0 0 0 0 0 0 0 0 0 0 0 0 0 0 0 0 0 0 0 0 0 0 0 0 0 0 0 0 0 0 0 0 0
0 0 0 0 0 0 0 0 0 0 0 0 0 0 0 0 0 0 0 0 0 0 0 0 0 0 0 0 0 0 0 0 0 0 0 0 0 0 0 0 0 0 0 0 0
0 0 0 0 0 0 0 0 0 0 0 0 0 0 0 0 0 0 0 0 0 0 0 0 0 0 0 0 0 0 0 0 0 0 0 0 0 0 0 0 0 0 0 0 0
0 0 0 0 0 0 0 0 0 0 0 0 0 0 0 0 0 0 0 0 0 0 0 0 0 0 0 0 0 0 0 0 0 0 0 0 0 0 0 0 0 0 0 0 0
0 0 0 0 0 0 0 0 0 0 0 0 0 0 0 0 0 0 0 0 0 0 0 0 0 0 0 0 0 0 0 0 0 0 0 0 0 0 0 0 0 0 0 0 0
0 0 0 0 0 0 0 0 0 0 0 0 0 0 0 0 0 0 0 0 0 0 0 0 0 0 0 0 0 0 0 0 0 0 0 0 0 0 0 0 0 0 0 0 0
0 0 0 0 0 0 0 0 0 0 0 0 0 0 0 0 0 0 0 0 0 0 0 0 0 0 0 0 0 0 0 0 0 0 0 0 0 0 0 0 0 0 0 0 0
0 0 0 0 0 0 0 0 0 0 0 0 0 0 0 0 0 0 0 0 0 0 0 0 0 0 0 0 0 0 0 0 0 0 0 0 0 0 0 0 0 0 0 0 0
0 0 0 0 0 0 0 0 0 0 0 0 0 0 0 0 0 0 0 0 0 0 0 0 0 0 0 0 0 0 0 0 0 0 0 0 0 0 0 0 0 0 0 0 0
0 0 0 0 0 0 0 0 0 0 0 0 0 0 0 0 0 0 0 0 0 0 0 0 0 0 0 0 0 0 0 0 0 0 0 0 0 0 0 0 0 0 0 0 0
0 0 0 0 0 0 0 0 0 0 0 0 0 0 0 0 0 0 0 0 0 0 0 0 0 0 0 0 0 0 0 0 0 0 0 0 0 0 0 0 0 0 0 0 0
0 0 0 0 0 0 0 0 0 0 0 0 0 0 0 0 0 0 0 0 0 0 0 0 0 0 0 0 0 0 0 0 0 0 0 0 0 0 0 0 0 0 0 0 0
0 0 0 1 1 0 0 0 0 0 0 0 0 0 0 0 0 0 0 0 0 0 0 0 0 0 0 0 0 0 0 0 0 0 0 0 0 0 0 0 0 0 0 0 0
CIN
-0 -0 -0 -0 -1 -0 -0 -0 -0 -0 -0 -0 -0 -0 -0 -0 -0 -0 -0 -0 -0 -0 -0 -0 -0 -0 -0 -0 -0 -0 -0 -0 -0 -0 -0 -0 -0 -0 -0 -0 -0 -0 -0 -0 -0
-0 -0 -0 -0 -0 -0 -0 -1 -1 -0 -0 -0 -0 -0 -0 -0 -0 -0 -0 -0 -0 -0 -0 -0 -0 -0 -0 -0 -0 -0 -0 -0 -0 -0 -0 -0 -0 -0 -0 -0 -0 -0 -0 -0 -0
-0 -0 -0 -0 -0 -0 -1 -1 -0 -0 -0 -0 -0 -0 -0 -0 -0 -0 -0 -0 -0 -0 -0 -0 -0 -0 -0 -0 -0 -0 -0 -0 -0 -0 -0 -0 -0 -0 -0 -0 -0 -0 -0 -0 -0
-0 -0 -0 -0 -0 -0 -0 -1 -0 -0 -0 -0 -0 -0 -0 -0 -0 -0 -0 -0 -0 -0 -0 -0 -0 -0 -0 -0 -0 -0 -0 -0 -0 -0 -0 -0 -0 -0 -0 -0 -0 -0 -0 -0 -0
-0 -0 -0 -0 -0 -0 -0 -1 -0 -0 -0 -0 -0 -0 -0 -0 -0 -0 -0 -0 -0 -0 -0 -0 -0 -0 -0 -0 -0 -0 -0 -0 -0 -0 -0 -0 -0 -0 -0 -0 -0 -0 -0 -0 -0
-0 -0 -0 -0 -0 -0 -0 -0 -0 -0 -0 -0 -0 -0 -0 -0 -0 -0 -0 -0 -0 -0 -0 -0 -0 -0 -0 -0 -0 -0 -0 -0 -0 -0 -0 -0 -0 -0 -0 -0 -0 -0 -0 -0 -0
-0 -0 -0 -0 -0 -0 -0 -0 -0 -0 -0 -0 -0 -0 -0 -0 -0 -0 -0 -0 -0 -0 -0 -0 -0 -0 -0 -0 -0 -0 -0 -0 -0 -0 -0 -0 -0 -0 -0 -0 -0 -0 -0 -0 -0
-0 -0 -0 -0 -0 -0 -0 -0 -0 -0 -0 -0 -0 -0 -0 -0 -0 -0 -0 -0 -0 -0 -0 -0 -0 -0 -0 -0 -0 -0 -0 -0 -0 -0 -0 -0 -0 -0 -0 -0 -0 -0 -0 -0 -0
-0 -0 -0 -0 -0 -0 -0 -0 -0 -0 -0 -0 -0 -0 -0 -0 -0 -0 -0 -0 -0 -0 -0 -0 -0 -0 -0 -0 -0 -0 -0 -0 -0 -0 -0 -0 -0 -0 -0 -0 -0 -0 -0 -0 -0
-0 -0 -0 -0 -0 -0 -0 -0 -0 -0 -0 -0 -0 -0 -0 -0 -0 -0 -0 -0 -0 -0 -0 -0 -0 -0 -0 -0 -0 -0 -0 -0 -0 -0 -0 -0 -0 -0 -0 -0 -0 -0 -0 -0 -0
-0 -0 -0 -0 -0 -0 -0 -0 -0 -0 -0 -0 -0 -0 -0 -0 -0 -0 -0 -0 -0 -0 -0 -0 -0 -0 -0 -0 -0 -0 -0 -0 -0 -0 -0 -0 -0 -0 -0 -0 -0 -0 -0 -0 -0
-0 -0 -0 -0 -0 -0 -0 -0 -0 -0 -0 -0 -0 -0 -0 -0 -0 -0 -0 -0 -0 -0 -0 -0 -0 -0 -0 -0 -0 -0 -0 -0 -0 -0 -0 -0 -0 -0 -0 -0 -0 -0 -0 -0 -0
-0 -0 -0 -0 -0 -0 -0 -0 -0 -0 -0 -0 -0 -0 -0 -0 -0 -0 -0 -0 -0 -0 -0 -0 -0 -0 -0 -0 -0 -0 -0 -0 -0 -0 -0 -0 -0 -0 -0 -0 -0 -0 -0 -0 -0
-0 -0 -0 -0 -0 -0 -0 -0 -0 -0 -0 -0 -0 -0 -0 -0 -0 -0 -0 -0 -0 -0 -0 -0 -0 -0 -0 -0 -0 -0 -0 -0 -0 -0 -0 -0 -0 -0 -0 -0 -0 -0 -0 -0 -0
-0 -0 -0 -0 -0 -0 -0 -0 -0 -0 -0 -0 -0 -0 -0 -0 -0 -0 -0 -0 -0 -0 -0 -0 -0 -0 -0 -0 -0 -0 -0 -0 -0 -0 -0 -0 -0 -0 -0 -0 -0 -0 -0 -0 -0
-0 -0 -0 -0 -0 -0 -0 -0 -0 -0 -0 -0 -0 -0 -0 -0 -0 -0 -0 -0 -0 -0 -0 -0 -0 -0 -0 -0 -0 -0 -0 -0 -0 -0 -0 -0 -0 -0 -0 -0 -0 -0 -0 -0 -0
-0 -0 -0 -0 -0 -0 -0 -0 -0 -0 -0 -0 -0 -0 -0 -0 -0 -0 -0 -0 -0 -0 -0 -0 -0 -0 -0 -0 -0 -0 -0 -0 -0 -0 -0 -0 -0 -0 -0 -0 -0 -0 -0 -0 -0
-0 -0 -0 -0 -0 -0 -0 -0 -0 -0 -0 -0 -0 -0 -0 -0 -0 -0 -0 -0 -0 -0 -0 -0 -0 -0 -0 -0 -0 -0 -0 -0 -0 -0 -0 -0 -0 -0 -0 -0 -0 -0 -0 -0 -0
-0 -0 -0 -0 -0 -0 -0 -0 -0 -0 -0 -0 -0 -0 -0 -0 -0 -0 -0 -0 -0 -0 -0 -0 -0 -0 -0 -0 -0 -0 -0 -0 -0 -0 -0 -0 -0 -0 -0 -0 -0 -0 -0 -0 -0
-0 -0 -0 -0 -0 -0 -0 -0 -0 -0 -0 -0 -0 -0 -0 -0 -0 -0 -0 -0 -0 -0 -0 -0 -0 -0 -0 -0 -0 -0 -0 -0 -0 -0 -0 -0 -0 -0 -0 -0 -0 -0 -0 -0 -0
-0 -0 -0 -0 -0 -0 -0 -0 -0 -0 -0 -0 -0 -0 -0 -0 -0 -0 -0 -0 -0 -0 -0 -0 -0 -0 -0 -0 -0 -0 -0 -0 -0 -0 -0 -0 -0 -0 -0 -0 -0 -0 -0 -0 -0
-0 -0 -0 -0 -0 -0 -0 -0 -0 -0 -0 -0 -0 -0 -0 -0 -0 -0 -0 -0 -0 -0 -0 -0 -0 -0 -0 -0 -0 -0 -0 -0 -0 -0 -0 -0 -0 -0 -0 -0 -0 -0 -0 -0 -0
-0 -0 -0 -0 -0 -0 -0 -0 -0 -0 -0 -0 -0 -0 -0 -0 -0 -0 -0 -0 -0 -0 -0 -0 -0 -0 -0 -0 -0 -0 -0 -0 -0 -0 -0 -0 -0 -0 -0 -0 -0 -0 -0 -0 -0
-0 -0 -0 -0 -0 -0 -0 -0 -0 -0 -0 -0 -0 -0 -0 -0 -0 -0 -0 -0 -0 -0 -0 -0 -0 -0 -0 -0 -0 -0 -0 -0 -0 -0 -0 -0 -0 -0 -0 -0 -0 -0 -0 -0 -0
-0 -0 -0 -0 -0 -0 -0 -0 -0 -0 -0 -0 -0 -0 -0 -0 -0 -0 -0 -0 -0 -0 -0 -0 -0 -0 -0 -0 -0 -0 -0 -0 -0 -0 -0 -0 -0 -0 -0 -0 -0 -0 -0 -0 -0
-0 -0 -0 -0 -0 -0 -0 -0 -0 -0 -0 -0 -0 -0 -0 -0 -0 -0 -0 -0 -0 -0 -0 -0 -0 -0 -0 -0 -0 -0 -0 -0 -0 -0 -0 -0 -0 -0 -0 -0 -0 -0 -0 -0 -0
-0 -0 -0 -0 -0 -0 -0 -0 -0 -0 -0 -0 -0 -0 -0 -0 -0 -0 -0 -0 -0 -0 -0 -0 -0 -0 -0 -0 -0 -0 -0 -0 -0 -0 -0 -0 -0 -0 -0 -0 -0 -0 -0 -0 -0
Wind_Speed
27 27 27 27 27 26 21 20 19 18 18 17 16 14 15 14 13 17 18 20 20 20 19 18 17 13 12 11 14 15 15 17 18 10 9 8 13 14 12 13 14 14 15 18 22
27 28 27 27 28 26 23 21 20 18 18 17 15 15 15 16 15 19 20 20 19 18 15 12 10 9 12 11 11 13 16 13 13 10 8 12 12 9 12 14 16 17 18 20 23
27 27 27 27 28 27 24 22 20 19 18 17 16 16 18 18 15 20 22 20 18 18 17 16 10 11 12 10 11 14 13 8 12 9 9 10 13 16 8 18 18 19 20 22 24
27 27 27 27 28 27 25 23 21 19 18 17 18 17 17 17 12 21 22 20 18 17 13 10 9 11 10 12 13 11 14 10 13 12 11 13 12 14 16 14 15 17 19 22 24
26 26 26 25 25 25 25 23 21 19 18 19 20 19 18 17 18 22 22 20 18 17 12 12 9 12 9 10 12 9 11 12 11 11 12 11 14 13 14 14 15 17 19 22 24
25 25 25 24 23 23 22 21 21 21 21 21 20 19 14 15 21 21 20 18 17 15 13 15 13 15 10 9 18 8 7 9 12 12 10 13 11 17 14 13 16 18 20 21 23
25 25 24 23 21 21 20 19 21 20 21 21 21 19 20 15 20 19 18 17 16 15 12 15 14 15 11 10 7 7 9 10 12 13 15 10 16 16 12 12 16 17 19 21 23
25 24 24 22 20 19 19 19 21 20 21 21 20 17 16 17 18 19 19 17 16 14 13 15 14 11 10 7 8 10 10 15 14 13 13 16 17 13 13 13 17 19 21 22 24
24 24 23 22 19 17 19 18 16 16 21 19 17 14 15 16 16 20 18 16 15 14 14 13 13 12 8 7 12 12 20 14 15 17 15 13 19 12 13 14 16 17 18 20 22
24 24 22 21 20 19 20 18 21 17 15 16 17 16 16 16 17 18 18 18 15 13 14 14 13 12 8 11 16 16 15 17 16 15 16 15 18 13 13 14 15 17 17 20 23
24 24 21 20 19 19 20 19 21 20 23 20 20 15 16 16 15 17 18 17 13 15 13 13 12 14 14 17 18 19 18 17 18 18 22 20 18 13 12 14 14 15 16 19 22
23 23 20 20 20 19 21 22 20 19 22 19 17 16 15 15 13 19 20 13 12 13 13 13 14 14 15 16 16 17 17 19 20 21 23 25 26 15 12 14 11 11 15 18 22
22 22 19 22 21 20 22 20 19 21 20 20 18 18 16 17 16 17 17 14 14 15 17 15 14 13 14 14 15 18 19 20 22 27 25 29 31 19 15 16 13 13 16 18 22
21 20 19 22 21 21 20 18 18 20 20 19 18 18 16 14 17 15 15 14 16 15 15 17 14 14 15 17 19 19 19 21 24 28 30 23 37 23 17 17 14 14 15 18 22
20 20 21 21 21 22 21 17 18 19 26 17 18 17 16 15 14 16 16 16 16 16 17 18 14 15 17 18 18 19 19 22 25 28 34 28 32 31 18 19 16 14 15 18 21
20 20 21 20 20 20 18 17 18 20 22 16 17 17 15 15 16 15 16 18 16 19 20 17 18 17 19 17 18 17 20 22 25 27 36 29 23 32 23 21 16 15 15 18 21
19 21 20 21 21 17 16 18 23 20 17 17 17 16 17 18 18 18 20 20 21 24 24 22 20 18 16 19 19 19 21 30 33 32 34 29 27 34 25 22 14 13 16 16 20
18 20 21 20 19 16 17 20 22 21 20 20 20 18 19 19 22 21 24 27 20 24 25 27 31 17 16 22 22 18 21 27 36 36 36 28 36 35 21 19 17 15 15 18 22
15 19 20 22 19 16 19 23 23 24 21 20 20 22 21 22 23 22 24 27 22 16 25 27 29 21 19 20 20 21 25 23 32 33 40 34 33 29 22 20 18 18 19 23 22
19 19 21 21 18 16 21 24 25 24 22 22 25 19 26 23 24 23 23 24 24 20 21 26 34 25 24 23 24 24 21 28 27 38 43 38 38 35 25 21 19 20 21 22 23
19 21 22 19 17 18 23 25 25 22 23 25 26 26 24 26 23 25 25 26 23 23 22 25 29 29 25 27 27 27 30 28 29 31 40 46 41 27 23 21 21 20 21 21 23
18 23 20 17 19 21 25 25 24 23 21 24 25 26 27 25 27 27 28 26 20 19 24 22 27 35 34 28 27 29 30 27 35 37 35 39 48 30 27 22 20 20 21 21 23
21 23 18 15 23 24 26 27 26 24 22 22 23 22 25 25 29 24 25 24 21 22 25 22 29 37 37 33 29 31 29 28 29 33 40 42 41 26 27 26 24 23 23 23 23
19 23 20 18 22 26 27 29 28 22 24 22 24 23 26 27 25 30 28 26 23 22 24 22 31 34 39 37 31 33 31 28 30 38 41 42 46 37 36 33 28 27 26 25 25
18 23 19 24 25 23 25 29 29 29 24 20 26 25 26 31 30 32 30 30 27 25 24 26 38 37 40 38 36 38 37 31 33 35 42 46 45 40 40 34 30 29 28 28 28
19 21 20 25 25 23 23 29 31 29 25 28 28 26 25 30 29 34 29 30 32 25 27 26 38 36 43 37 37 45 40 37 36 38 42 45 50 41 40 37 35 31 29 29 29
16 18 20 24 25 25 29 30 31 27 26 27 28 29 31 31 31 29 28 28 28 26 25 28 32 36 45 36 42 50 38 36 37 35 35 41 37 40 39 35 32 32 29 29 27
Wind_Direction
13 9 12 17 9 15 41 44 47 58 56 42 27 6 344 316 334 357 334 291 280 273 266 260 267 298 301 327 302 294 295 267 272 294 337 353 322 332 16 3 343 338 335 328 323
20 14 12 7 11 19 36 45 47 58 56 46 19 346 316 297 5 355 315 301 292 281 294 323 332 335 324 328 324 312 298 315 322 340 345 344 348 357 340 334 336 335 340 337 333
13 14 15 16 15 19 36 47 53 55 54 50 10 317 300 290 355 329 307 304 297 274 293 293 333 323 319 333 320 311 307 337 346 6 354 348 339 323 359 317 329 328 330 335 333
13 11 16 19 19 25 38 48 52 47 52 37 353 276 260 329 44 304 301 300 295 286 329 347 344 325 322 313 321 316 321 329 319 337 336 328 340 335 329 335 343 342 343 340 337
9 11 17 25 27 30 35 44 47 38 24 5 342 287 303 355 331 293 298 301 308 314 342 332 336 320 329 325 326 325 318 331 340 342 339 344 331 334 339 343 344 344 341 338 338
7 12 15 22 26 29 33 43 34 23 12 358 337 303 40 19 298 302 313 319 318 330 333 312 316 312 331 338 305 335 349 334 325 330 345 331 339 325 333 342 337 336 336 340 341
0 6 14 21 26 30 35 34 12 16 3 342 315 358 3 21 326 311 340 340 335 330 340 317 313 310 323 338 7 21 335 333 328 330 326 354 322 321 336 339 337 337 338 340 342
357 358 7 18 27 36 31 22 8 6 354 338 326 351 24 359 341 333 321 350 355 353 342 322 329 338 340 29 360 333 329 311 319 330 327 319 317 324 332 334 331 332 333 334 338
353 355 359 7 17 27 17 25 27 17 359 358 1 16 15 1 356 333 341 349 356 358 347 347 333 329 354 348 322 311 307 307 314 314 322 318 318 322 327 329 329 333 336 339 340
351 349 356 3 9 13 12 23 13 19 13 14 2 1 358 1 344 342 338 331 351 0 344 334 334 333 330 314 314 312 307 308 312 320 315 315 315 320 321 323 325 330 333 335 336
349 346 356 0 4 6 6 4 0 353 351 348 341 356 355 351 355 344 338 330 354 343 343 338 339 324 318 310 306 305 308 311 313 316 312 310 312 310 313 317 320 326 332 335 337
347 347 358 358 357 358 356 358 1 354 341 350 357 354 353 350 351 330 323 353 352 343 342 334 324 325 323 318 315 314 312 310 313 316 313 310 308 309 304 310 314 321 328 332 334
346 350 356 352 351 352 350 356 5 355 344 337 341 341 344 337 339 331 328 344 346 340 329 323 329 327 322 320 317 315 310 312 311 312 312 310 307 305 308 311 312 317 325 330 331
346 350 352 343 345 347 351 0 1 353 347 341 339 341 342 345 335 338 336 340 336 337 337 328 326 322 316 312 311 309 318 315 314 313 308 321 305 312 309 306 303 309 321 328 332
347 349 352 347 345 343 345 0 357 355 333 351 343 349 352 340 348 338 337 332 329 327 327 323 324 316 310 310 313 311 320 316 314 310 307 305 305 311 314 304 303 307 319 327 332
345 346 345 348 351 350 356 357 353 344 331 348 346 339 339 338 333 337 329 331 334 324 324 319 319 315 312 314 314 320 317 316 315 311 303 305 299 310 312 308 304 310 317 326 331
347 344 346 344 342 356 360 351 334 331 348 344 346 343 331 328 325 321 316 314 311 311 307 311 307 311 309 306 309 309 311 307 305 304 303 314 302 304 316 322 311 307 315 325 331
341 341 346 347 346 357 351 336 325 332 330 338 337 334 326 324 317 315 311 305 302 307 306 302 300 300 300 301 302 297 304 303 302 302 306 309 303 311 320 325 327 321 323 326 327
344 336 338 336 342 348 334 325 325 327 331 332 335 327 324 323 321 320 312 308 308 295 299 303 300 311 309 306 305 303 296 307 303 303 301 302 307 312 316 316 314 311 314 318 324
328 330 330 334 337 333 322 318 319 325 327 328 322 323 319 320 320 320 317 320 311 310 306 305 299 300 301 305 299 300 307 301 300 301 299 304 304 304 311 306 307 304 308 314 322
328 323 330 337 336 323 315 316 320 325 323 320 318 316 316 317 316 316 316 316 316 314 308 305 299 300 303 294 291 292 292 296 300 298 299 302 305 318 315 311 303 303 308 312 318
321 316 330 333 320 319 318 320 324 323 326 318 319 315 313 315 313 312 312 314 324 322 309 305 305 296 296 302 299 294 291 286 291 297 297 300 299 316 316 315 310 306 308 313 317
314 313 327 329 312 313 317 316 317 319 321 323 321 322 324 317 314 311 315 320 320 314 311 310 301 299 301 303 300 294 289 290 293 298 292 296 303 321 321 318 314 308 308 312 316
315 312 315 312 314 314 315 316 315 322 317 318 319 322 318 313 311 313 313 318 318 316 316 311 301 296 294 301 306 298 294 285 284 290 295 287 298 305 308 307 305 304 305 308 311
311 308 312 310 310 309 315 315 313 312 314 316 316 311 312 311 309 305 305 308 311 310 312 306 298 298 296 298 297 296 296 290 281 281 290 299 297 304 306 302 302 301 300 303 305
306 311 314 308 310 310 311 314 310 310 312 311 309 313 310 309 308 308 307 307 306 306 305 305 302 304 299 299 297 294 293 292 288 286 288 292 296 300 305 307 306 306 304 299 301
313 316 315 311 311 308 308 312 315 318 313 313 312 311 308 306 310 312 311 311 309 307 301 303 302 304 299 305 303 296 292 289 291 292 291 294 299 310 310 312 312 311 308 304 301